Change the Weather History Date:

Saturday, October 27, 2012

  Actual Average Record
Temperature  
Mean Temperature 56 °F -  
Max Temperature 61 °F 77 °F 86 °F (1969)
Min Temperature 48 °F 55 °F 35 °F (1957)
Degree Days  
Heating Degree Days 9    
Growing Degree Days 6 (Base 50)    
Moisture  
Dew Point 49 °F    
Average Humidity 80    
Maximum Humidity 88    
Minimum Humidity 67    
Precipitation  
Precipitation 0.00 in - - ()
Sea Level Pressure  
Sea Level Pressure 29.98 in    
Wind  
Wind Speed 14 mph (North)    
Max Wind Speed 23 mph    
Max Gust Speed 28 mph    
Visibility 10 miles    
Events      
Averages and records for this station are not official NWS values.
T = Trace of Precipitation, MM = Missing Value Source: NWS Daily Summary

Daily Weather History Graph

Daily Weather History Graph

Search for Another Location

Airport or City:

Trip Planner

Search our weather history database for the weather conditions in past years. The results will help you decide how hot, cold, wet, or windy it might be!

Date:

Astronomy

Oct. 27, 2012 Rise Set
Actual Time 7:06 AM CDT 6:11 PM CDT
Civil Twilight 6:42 AM CDT 6:36 PM CDT
Nautical Twilight 6:13 AM CDT 7:04 PM CDT
Astronomical Twilight 5:45 AM CDT 7:32 PM CDT
Moon 4:53 PM CDT (10/27) 5:07 AM CDT (10/27)
Length of Visible Light 11h 54m
Length of Day
11h 05m
Waxing Gibbous, 96% of the Moon is Illuminated
Oct 27
Waxing Gibbous
Oct 29
Full
Nov 6
Last Quarter
Nov 13
New
Nov 20
First Quarter

Hourly Weather History & Observations

Time (CDT) Temp. Dew Point Humidity Pressure Visibility Wind Dir Wind Speed Gust Speed Precip Events Conditions
12:06 AM 64.4 °F 59.0 °F 83% 29.97 in 10.0 mi North 18.4 mph 21.9 mph N/A   Mostly Cloudy
12:12 AM 64.4 °F 59.0 °F 83% 29.97 in 10.0 mi North 18.4 mph 24.2 mph N/A   Mostly Cloudy
12:55 AM 61.5 °F 56.5 °F 83% 29.97 in 10.0 mi North 19.6 mph - N/A   Mostly Cloudy
1:55 AM 59.2 °F 54.3 °F 84% 29.96 in 10.0 mi North 20.7 mph 26.5 mph N/A   Overcast
2:55 AM 57.2 °F 52.7 °F 85% 29.96 in 10.0 mi North 9.2 mph - N/A   Overcast
3:44 AM 55.4 °F 50.0 °F 82% 29.95 in 10.0 mi North 9.2 mph - N/A   Scattered Clouds
3:55 AM 55.4 °F 51.1 °F 85% 29.95 in 10.0 mi North 8.1 mph - N/A   Partly Cloudy
4:09 AM 55.4 °F 50.0 °F 82% 29.95 in 10.0 mi Variable 6.9 mph - N/A   Mostly Cloudy
4:55 AM 55.0 °F 51.1 °F 86% 29.96 in 10.0 mi North 6.9 mph 19.6 mph N/A   Overcast
5:40 AM 55.4 °F 50.0 °F 82% 29.97 in 10.0 mi Variable 5.8 mph - N/A   Overcast
5:55 AM 54.3 °F 50.7 °F 88% 29.97 in 10.0 mi Variable 5.8 mph - N/A   Overcast
6:19 AM 53.6 °F 50.0 °F 88% 29.97 in 10.0 mi NNE 11.5 mph 17.3 mph N/A   Overcast
6:55 AM 54.0 °F 50.4 °F 88% 29.97 in 10.0 mi Variable 4.6 mph - N/A   Overcast
6:59 AM 53.6 °F 50.0 °F 88% 29.97 in 10.0 mi North 8.1 mph - N/A   Overcast
7:55 AM 53.1 °F 48.7 °F 85% 29.99 in 10.0 mi North 12.7 mph 23.0 mph N/A   Overcast
8:03 AM 53.6 °F 48.2 °F 82% 29.99 in 10.0 mi North 13.8 mph 20.7 mph N/A   Overcast
8:55 AM 53.4 °F 48.2 °F 82% 30.00 in 10.0 mi North 13.8 mph - N/A   Overcast
9:55 AM 54.9 °F 48.0 °F 78% 30.00 in 10.0 mi North 19.6 mph 25.3 mph N/A   Overcast
10:27 AM 57.2 °F 48.2 °F 72% 30.00 in 10.0 mi NNW 16.1 mph - N/A   Overcast
10:55 AM 56.8 °F 48.6 °F 74% 30.00 in 10.0 mi North 19.6 mph - N/A   Overcast
11:09 AM 57.2 °F 48.2 °F 72% 30.00 in 10.0 mi North 17.3 mph 23.0 mph N/A   Scattered Clouds
11:55 AM 59.4 °F 49.3 °F 69% 29.99 in 10.0 mi North 16.1 mph - N/A   Scattered Clouds
12:11 PM 59.0 °F 48.2 °F 67% 29.98 in 10.0 mi NNW 13.8 mph - N/A   Mostly Cloudy
12:55 PM 56.8 °F 48.2 °F 73% 29.98 in 10.0 mi North 18.4 mph - N/A   Overcast
1:55 PM 56.7 °F 48.0 °F 73% 29.95 in 10.0 mi North 15.0 mph 21.9 mph N/A   Overcast
2:55 PM 55.0 °F 47.3 °F 75% 29.94 in 10.0 mi North 16.1 mph 25.3 mph N/A   Overcast
3:55 PM 53.8 °F 46.8 °F 77% 29.95 in 10.0 mi North 21.9 mph 26.5 mph N/A   Overcast
4:55 PM 52.5 °F 45.9 °F 78% 29.96 in 10.0 mi North 16.1 mph 24.2 mph N/A   Overcast
5:55 PM 52.7 °F 45.7 °F 77% 29.97 in 10.0 mi North 12.7 mph - N/A   Overcast
6:52 PM 53.6 °F 44.6 °F 72% 29.98 in 10.0 mi North 23.0 mph 27.6 mph N/A   Overcast
6:55 PM 52.9 °F 45.5 °F 76% 29.98 in 10.0 mi North 19.6 mph 27.6 mph N/A   Overcast
7:53 PM 51.8 °F 44.6 °F 76% 29.98 in 10.0 mi North 13.8 mph - N/A   Scattered Clouds
7:55 PM 52.2 °F 45.0 °F 76% 29.98 in 10.0 mi North 13.8 mph - N/A   Scattered Clouds
8:55 PM 51.1 °F 45.1 °F 80% 29.99 in 10.0 mi North 11.5 mph - N/A   Clear
9:55 PM 50.4 °F 45.1 °F 82% 30.01 in 10.0 mi North 9.2 mph - N/A   Scattered Clouds
10:55 PM 49.6 °F 45.1 °F 84% 30.01 in 10.0 mi NNW 10.4 mph - N/A   Clear
11:47 PM 48.2 °F 44.6 °F 87% 30.01 in 10.0 mi NNW 9.2 mph - N/A   Mostly Cloudy
11:55 PM 49.3 °F 45.0 °F 85% 30.01 in 10.0 mi NNW 9.2 mph - N/A   Mostly Cloudy